This is the latest recevied weather packets stored in our database for station/object KJ4EWA. If no packets are shown the sender has not sent any weather packets the latest 10 day(s).
| Time | Temp. | Humidity | Pressure | Rain* | Wind** | Luminosity | Snow |
|---|---|---|---|---|---|---|---|
| 1777422896 | 22.78° C | 98% | 1020.6 hPa | 0 mm | - | 0 W/m² | - |
| 1777422592 | 23.33° C | 98% | 1020.6 hPa | 0 mm | - | 0 W/m² | - |
| 1777422289 | 23.33° C | 97% | 1020.9 hPa | 0 mm | - | 0 W/m² | - |
| 1777421983 | 23.33° C | 96% | 1020.9 hPa | 0 mm | - | 0 W/m² | - |
| 1777421678 | 23.33° C | 96% | 1020.7 hPa | 0 mm | - | 2 W/m² | - |
| 1777421373 | 23.33° C | 96% | 1020.8 hPa | 0 mm | - | 6 W/m² | - |
| 1777421070 | 23.33° C | 95% | 1020.9 hPa | 0 mm | - | 9 W/m² | - |
| 1777420767 | 23.89° C | 95% | 1020.9 hPa | 0 mm | - | 13 W/m² | - |
| 1777420463 | 23.89° C | 95% | 1020.9 hPa | 0 mm | - | 16 W/m² | - |
| 1777420160 | 23.89° C | 95% | 1021 hPa | 0 mm | - | 21 W/m² | - |
| 1777419855 | 23.89° C | 94% | 1020.8 hPa | 0 mm | - | 26 W/m² | - |
| 1777419553 | 23.89° C | 94% | 1020.9 hPa | 0 mm | - | 33 W/m² | - |
| 1777419252 | 23.89° C | 94% | 1020.7 hPa | 0 mm | - | 35 W/m² | - |
| 1777418949 | 23.89° C | 94% | 1020.6 hPa | 0 mm | - | 34 W/m² | - |
| 1777418644 | 23.89° C | 93% | 1020.6 hPa | 0 mm | - | 39 W/m² | - |
| 1777418341 | 24.44° C | 93% | 1020.3 hPa | 0 mm | - | 44 W/m² | - |
| 1777418036 | 24.44° C | 92% | 1020.1 hPa | 0 mm | - | 50 W/m² | - |
| 1777417732 | 24.44° C | 92% | 1020.2 hPa | 0 mm | - | 64 W/m² | - |
| 1777417428 | 24.44° C | 92% | 1020.3 hPa | 0 mm | - | 75 W/m² | - |
| 1777417125 | 24.44° C | 92% | 1020.1 hPa | 0 mm | - | 69 W/m² | - |
| 1777416820 | 24.44° C | 91% | 1020.2 hPa | 0 mm | - | 77 W/m² | - |
| 1777416516 | 24.44° C | 91% | 1020.5 hPa | 0 mm | - | 78 W/m² | - |
| 1777416212 | 25° C | 90% | 1020.4 hPa | 0 mm | - | 95 W/m² | - |
| 1777415912 | 25° C | 90% | 1020.4 hPa | 0 mm | - | 119 W/m² | - |
| 1777415607 | 25° C | 90% | 1020.6 hPa | 0 mm | - | 113 W/m² | - |
* Rain latest hour (hover to see other rain measurements)
** Current wind speed in m/s (hover to see current wind gust speed)